Regional Weather Roundup
Issued by NWS

Home | Current Version | Previous Version | Graphics & Text | Print | Product List | Glossary On
Versions: 1 2 3 4 5 6 7 8 9 10 11 12 13 14 15 16 17 18 19 20 21 22 23 24 25 26 27 28 29 30 31 32 33 34 35 36 37 38 39 40 41 42 43 44 45 46 47 48 49 50
000
ASUS45 KCYS 232010
RWRWY

WYOMING REGIONAL WEATHER ROUNDUP
NATIONAL WEATHER SERVICE CHEYENNE WY
200 PM MDT SAT MAY 23 2015

NOTE:  "FAIR" INDICATES FEW OR NO CLOUDS BELOW 12,000 FEET
WITH NO SIGNIFICANT WEATHER AND/OR OBSTRUCTIONS TO VISIBILITY.

WYZ001-232100-
YELLOWSTONE NATIONAL PARK

CITY           SKY/WX    TMP DP  RH WIND       PRES   REMARKS
LK YELLOWSTONE   N/A     50  35  56 VRB5      30.04R
W YELLOWSTONE  NOT AVBL

$$
WYZ002>013-054>058-071-098>099-232100-
NORTHERN WYOMING

CITY           SKY/WX    TMP DP  RH WIND       PRES   REMARKS
JACKSON        LGT RAIN  43  43 100 VRB7      30.01R
CODY           CLOUDY    50  46  87 N13       30.00S
GREYBULL       PTSUNNY   59  51  75 N10       29.94F
WORLAND        FAIR      59  50  72 NW12      29.94S
SHERIDAN       CLOUDY    54  46  74 N5        30.01S
BUFFALO        RAIN      50  48  93 N7        30.01S FOG
GILLETTE       CLOUDY    55  45  68 E10       30.00F
HULETT         CLOUDY    54  45  71 NE6       30.04F
NEWCASTLE      CLOUDY    57  45  62 S10G17    30.02F

$$
WYZ014>020-022>026-101>103-232100-
CENTRAL WYOMING

CITY           SKY/WX    TMP DP  RH WIND       PRES   REMARKS
BIG PINEY      FAIR      53  38  56 CALM      29.98F
PINEDALE       CLOUDY    52  37  58 NE16      29.99F
DUBOIS         LGT RAIN  41  36  81 NW5       30.03R
LANDER         CLOUDY    57  44  62 N10       29.92F
RIVERTON       CLOUDY    60  43  53 VRB5      29.94F
CASPER         PTSUNNY   59  45  59 SE16      29.94F
DOUGLAS        PTSUNNY   61  46  57 SE15G23   29.97F

$$
WYZ021-027>030-104>119-232100-
SOUTHERN WYOMING

CITY           SKY/WX    TMP DP  RH WIND       PRES   REMARKS
EVANSTON       LGT RAIN  42  36  79 S20G33    29.98R
KEMMERER       FAIR      55  37  50 NW6       29.98S
FORT BRIDGER   CLOUDY    43  41  93 S17       30.03R
ROCK SPRINGS   CLOUDY    52  40  63 N10       29.96S
DIXON          FAIR      56  37  47 W13G18    29.98R
RAWLINS        LGT RAIN  47  37  68 N14G25    29.98S
SARATOGA       CLOUDY    50  37  62 W15G23    29.98R THUNDER
LARAMIE        CLOUDY    51  41  68 S17       29.99S
CHEYENNE       CLOUDY    56  45  66 S12       29.98F
TORRINGTON     CLOUDY    61  51  70 SE16      29.95F
PINE BLUFFS    LGT RAIN  54  50  87 E6        29.97F

$$


USA.gov is the U.S. government's official web portal to all federal, state and local government web resources and services.